| time (UTC) | temp C | wind direction | speed KPH | gust KPH | rain 1hr cm | rain 24hr cm | rain mn cm | humidity % | barometer mb |
| 20260507213029 | 27 | 152 | 0.0 | 6.4 | 0.00 | 0.00 | 0.00 | 15 | 1007.6 |
| 20260507211526 | 27 | 307 | 0.0 | 1.6 | 0.00 | 0.00 | 0.00 | 14 | 1007.9 |
| 20260507210029 | 27 | 110 | 0.0 | 0.0 | 0.00 | 0.00 | 0.00 | 15 | 1008.2 |
| 20260507204525 | 27 | 166 | 0.0 | 6.4 | 0.00 | 0.00 | 0.00 | 15 | 1008.5 |
| 20260507203031 | 27 | 210 | 0.0 | 8.0 | 0.00 | 0.00 | 0.00 | 16 | 1008.8 |
| 20260507201516 | 27 | 153 | 0.0 | 9.7 | 0.00 | 0.00 | 0.00 | 16 | 1009.1 |
| 20260507200024 | 27 | 104 | 0.0 | 0.0 | 0.00 | 0.00 | 0.00 | 16 | 1009.4 |
| 20260507194510 | 26 | 157 | 0.0 | 0.0 | 0.00 | 0.00 | 0.00 | 17 | 1009.9 |
| 20260507193029 | 26 | 307 | 0.0 | 1.6 | 0.00 | 0.00 | 0.00 | 17 | 1010.2 |
| 20260507191504 | 26 | 79 | 0.0 | 0.0 | 0.00 | 0.00 | 0.00 | 18 | 1010.4 |
| 20260507190004 | 26 | 342 | 0.0 | 0.0 | 0.00 | 0.00 | 0.00 | 18 | 1010.5 |
| 20260507184559 | 25 | 56 | 0.0 | 0.0 | 0.00 | 0.00 | 0.00 | 20 | 1010.8 |
| 20260507183058 | 23 | 29 | 0.0 | 0.0 | 0.00 | 0.00 | 0.00 | 20 | 1011.1 |
| 20260507181551 | 23 | 30 | 0.0 | 11.3 | 0.00 | 0.00 | 0.00 | 20 | 1011.5 |
| 20260507180049 | 22 | 333 | 0.0 | 1.6 | 0.00 | 0.00 | 0.00 | 22 | 1011.8 |
| 20260507174555 | 22 | 309 | 0.0 | 9.7 | 0.00 | 0.00 | 0.00 | 22 | 1012.0 |
| 20260507173042 | 22 | 335 | 0.0 | 12.9 | 0.00 | 0.00 | 0.00 | 22 | 1012.1 |
| 20260507171547 | 21 | 24 | 1.6 | 14.5 | 0.00 | 0.00 | 0.00 | 22 | 1012.4 |
| 20260507170044 | 21 | 340 | 1.6 | 16.1 | 0.00 | 0.00 | 0.00 | 23 | 1012.8 |
| 20260507164537 | 21 | 65 | 1.6 | 17.7 | 0.00 | 0.00 | 0.00 | 23 | 1012.7 |
| 20260507163036 | 20 | 335 | 1.6 | 22.5 | 0.00 | 0.00 | 0.00 | 24 | 1013.0 |
| 20260507161539 | 19 | 31 | 3.2 | 24.1 | 0.00 | 0.00 | 0.00 | 25 | 1013.0 |
| 20260507160037 | 18 | 333 | 6.4 | 24.1 | 0.00 | 0.00 | 0.00 | 27 | 1013.3 |
| 20260507154530 | 18 | 327 | 8.0 | 22.5 | 0.00 | 0.00 | 0.00 | 29 | 1013.4 |
| 20260507153028 | 18 | 340 | 4.8 | 27.4 | 0.00 | 0.00 | 0.00 | 30 | 1013.5 |
| 20260507151527 | 17 | 56 | 4.8 | 32.2 | 0.00 | 0.00 | 0.00 | 31 | 1013.7 |
| 20260507150023 | 17 | 328 | 11.3 | 27.4 | 0.00 | 0.00 | 0.00 | 32 | 1013.9 |
| 20260507144527 | 16 | 359 | 3.2 | 29.0 | 0.00 | 0.00 | 0.00 | 35 | 1014.0 |
| 20260507143018 | 16 | 16 | 8.0 | 29.0 | 0.00 | 0.00 | 0.00 | 37 | 1014.0 |
| 20260507141515 | 15 | 352 | 11.3 | 27.4 | 0.00 | 0.00 | 0.00 | 38 | 1014.0 |
| 20260507140013 | 15 | 339 | 4.8 | 24.1 | 0.00 | 0.00 | 0.00 | 40 | 1014.2 |
| 20260507134510 | 15 | 323 | 6.4 | 24.1 | 0.00 | 0.00 | 0.00 | 41 | 1014.1 |
| 20260507133008 | 14 | 334 | 3.2 | 19.3 | 0.00 | 0.00 | 0.00 | 43 | 1014.1 |
| 20260507131518 | 13 | 358 | 1.6 | 14.5 | 0.00 | 0.00 | 0.00 | 43 | 1014.0 |
| 20260507130005 | 13 | 333 | 1.6 | 11.3 | 0.00 | 0.00 | 0.00 | 45 | 1014.0 |
| 20260507124505 | 12 | 347 | 0.0 | 3.2 | 0.00 | 0.00 | 0.00 | 45 | 1013.9 |
| 20260507123003 | 12 | 330 | 1.6 | 11.3 | 0.00 | 0.00 | 0.00 | 46 | 1013.7 |
| 20260507121502 | 12 | 323 | 0.0 | 0.0 | 0.00 | 0.00 | 0.00 | 46 | 1013.7 |
| 20260507114603 | 12 | 324 | 0.0 | 1.6 | 0.00 | 0.00 | 0.00 | 46 | 1013.5 |
| 20260507113058 | 12 | 314 | 0.0 | 9.7 | 0.00 | 0.00 | 0.00 | 45 | 1013.3 |
| 20260507111558 | 13 | 323 | 1.6 | 17.7 | 0.00 | 0.00 | 0.00 | 46 | 1013.2 |
| 20260507110057 | 13 | 330 | 1.6 | 9.7 | 0.00 | 0.00 | 0.00 | 46 | 1013.2 |
| 20260507104556 | 13 | 347 | 0.0 | 1.6 | 0.00 | 0.00 | 0.00 | 44 | 1013.3 |
| 20260507103100 | 13 | 343 | 0.0 | 3.2 | 0.00 | 0.00 | 0.00 | 44 | 1013.2 |
| 20260507101600 | 13 | 315 | 0.0 | 11.3 | 0.00 | 0.00 | 0.00 | 44 | 1013.2 |
| 20260507094553 | 13 | 321 | 0.0 | 1.6 | 0.00 | 0.00 | 0.00 | 44 | 1013.2 |
| 20260507093056 | 12 | 6 | 0.0 | 0.0 | 0.00 | 0.00 | 0.00 | 47 | 1013.1 |
| 20260507091550 | 12 | 42 | 0.0 | 0.0 | 0.00 | 0.00 | 0.00 | 44 | 1013.3 |
| 20260507090050 | 12 | 298 | 0.0 | 0.0 | 0.00 | 0.00 | 0.00 | 45 | 1013.3 |
| 20260507084550 | 10 | 156 | 0.0 | 0.0 | 0.00 | 0.00 | 0.00 | 38 | 1013.4 |
| 20260507083058 | 10 | 217 | 0.0 | 0.0 | 0.00 | 0.00 | 0.00 | 39 | 1013.3 |
| 20260507081547 | 10 | 143 | 0.0 | 0.0 | 0.00 | 0.00 | 0.00 | 39 | 1013.5 |
| 20260507080042 | 11 | 15 | 0.0 | 0.0 | 0.00 | 0.00 | 0.00 | 37 | 1013.3 |
| 20260507074540 | 11 | 172 | 0.0 | 0.0 | 0.00 | 0.00 | 0.00 | 38 | 1013.3 |
| 20260507073049 | 11 | 173 | 0.0 | 0.0 | 0.00 | 0.00 | 0.00 | 38 | 1013.2 |
| 20260507071536 | 12 | 162 | 0.0 | 0.0 | 0.00 | 0.00 | 0.00 | 37 | 1013.0 |
| 20260507070038 | 14 | 300 | 0.0 | 0.0 | 0.00 | 0.00 | 0.00 | 32 | 1012.8 |
| 20260507064535 | 12 | 311 | 0.0 | 0.0 | 0.00 | 0.00 | 0.00 | 38 | 1012.8 |
| 20260507063031 | 12 | 324 | 0.0 | 0.0 | 0.00 | 0.00 | 0.00 | 29 | 1012.6 |
| 20260507061526 | 12 | 73 | 0.0 | 0.0 | 0.00 | 0.00 | 0.00 | 31 | 1012.4 |
| 20260507060026 | 12 | 55 | 0.0 | 0.0 | 0.00 | 0.00 | 0.00 | 27 | 1012.2 |
| 20260507054525 | 13 | 302 | 0.0 | 0.0 | 0.00 | 0.00 | 0.00 | 26 | 1012.2 |
| 20260507053020 | 13 | 306 | 0.0 | 0.0 | 0.00 | 0.00 | 0.00 | 25 | 1012.2 |
| 20260507051518 | 15 | 321 | 0.0 | 0.0 | 0.00 | 0.00 | 0.00 | 25 | 1012.0 |
| 20260507050026 | 15 | 31 | 0.0 | 0.0 | 0.00 | 0.00 | 0.00 | 25 | 1011.9 |
| 20260507044515 | 16 | 181 | 0.0 | 0.0 | 0.00 | 0.00 | 0.00 | 23 | 1011.8 |
| 20260507043013 | 17 | 176 | 0.0 | 0.0 | 0.00 | 0.00 | 0.00 | 20 | 1011.4 |
| 20260507041526 | 18 | 172 | 0.0 | 0.0 | 0.00 | 0.00 | 0.00 | 19 | 1011.3 |
| 20260507040010 | 17 | 123 | 0.0 | 0.0 | 0.00 | 0.00 | 0.00 | 19 | 1011.0 |
| 20260507034516 | 18 | 101 | 0.0 | 0.0 | 0.00 | 0.00 | 0.00 | 20 | 1010.7 |
| 20260507033010 | 19 | 80 | 0.0 | 0.0 | 0.00 | 0.00 | 0.00 | 17 | 1010.2 |
| 20260507031511 | 20 | 229 | 0.0 | 3.2 | 0.00 | 0.00 | 0.00 | 16 | 1009.8 |
| 20260507030013 | 20 | 221 | 0.0 | 14.5 | 0.00 | 0.00 | 0.00 | 16 | 1009.5 |
| 20260507024509 | 21 | 248 | 0.0 | 11.3 | 0.00 | 0.00 | 0.00 | 16 | 1009.2 |
| 20260507023007 | 21 | 211 | 1.6 | 16.1 | 0.00 | 0.00 | 0.00 | 15 | 1008.9 |
| 20260507021507 | 21 | 235 | 4.8 | 27.4 | 0.00 | 0.00 | 0.00 | 15 | 1008.5 |
| 20260507020007 | 22 | 214 | 1.6 | 19.3 | 0.00 | 0.00 | 0.00 | 15 | 1008.2 |
| 20260507014511 | 23 | 219 | 3.2 | 25.7 | 0.00 | 0.00 | 0.00 | 14 | 1007.9 |
| 20260507013005 | 24 | 213 | 0.0 | 24.1 | 0.00 | 0.00 | 0.00 | 13 | 1007.8 |
| 20260507011504 | 26 | 210 | 0.0 | 9.7 | 0.00 | 0.00 | 0.00 | 11 | 1007.6 |
| 20260507010003 | 26 | 214 | 0.0 | 6.4 | 0.00 | 0.00 | 0.00 | 11 | 1007.5 |
| 20260507004505 | 26 | 203 | 6.4 | 22.5 | 0.00 | 0.00 | 0.00 | 12 | 1007.3 |
| 20260507003002 | 26 | 230 | 0.0 | 20.9 | 0.00 | 0.00 | 0.00 | 9 | 1007.2 |
| 20260507001501 | 27 | 259 | 0.0 | 6.4 | 0.00 | 0.00 | 0.00 | 7 | 1007.1 |
| 20260507000100 | 27 | 198 | 0.0 | 8.0 | 0.00 | 0.00 | 0.00 | 8 | 1007.0 |
| 20260506234605 | 26 | 238 | 1.6 | 9.7 | 0.00 | 0.00 | 0.00 | 8 | 1006.9 |
| 20260506233100 | 26 | 198 | 1.6 | 22.5 | 0.00 | 0.00 | 0.00 | 8 | 1007.0 |
| 20260506231559 | 26 | 218 | 3.2 | 20.9 | 0.00 | 0.00 | 0.00 | 8 | 1006.9 |
| 20260506230058 | 26 | 168 | 8.0 | 22.5 | 0.00 | 0.00 | 0.00 | 8 | 1006.8 |
| 20260506224555 | 26 | 195 | 0.0 | 14.5 | 0.00 | 0.00 | 0.00 | 9 | 1006.9 |
| 20260506223056 | 26 | 212 | 0.0 | 19.3 | 0.00 | 0.00 | 0.00 | 10 | 1006.9 |
| 20260506221551 | 26 | 217 | 0.0 | 1.6 | 0.00 | 0.00 | 0.00 | 12 | 1007.0 |
| 20260506220050 | 26 | 94 | 0.0 | 1.6 | 0.00 | 0.00 | 0.00 | 13 | 1007.1 |
| 20260506214548 | 26 | 135 | 0.0 | 16.1 | 0.00 | 0.00 | 0.00 | 13 | 1007.2 |